Location: Gouy
(50.0008°N, 3.2556°E)
Time: 19:20:58
(UTC+00:00)

Cosmos 1862 Rocket - Pass Details

Date: 23 May 2024
Orbit: 601 x 629 km, 82.5° (Epoch: 14 June)

Event Time Altitude Azimuth Distance (km) Brightness Sun altitude
Exits shadow 01:04:17 33° 221° (SW) 1,029 4.2 -17.1°
Maximum altitude 01:05:59 55° 283° (WNW) 728 3.8 -17.0°
Drops below altitude 10° 01:10:16 10° 2° (N) 1,967 7.3 -16.8°
Sets 01:12:32 0° 7° (N) 2,880 8.5 -16.7°
